Temp
-8 -10 -9 -9 -8 -8 -7 -7 -7 -6 -6 -6 -7 -7 -7 -7 -7 -8 -7 -8 -8 -8 -8 -8 -8 -8 -8 -8 -8 -8 -8 -8 -7 -8 -8 -8 -7 -7 -7 -7 -7 -7 -7
-10 -9 -9 -9 -8 -8 -7 -8 -7 -7 -7 -7 -7 -7 -8 -8 -8 -8 -8 -8 -8 -8 -8 -8 -8 -8 -8 -8 -8 -8 -8 -8 -7 -9 -8 -8 -7 -7 -7 -7 -7 -7 -7
-10 -10 -10 -9 -9 -8 -8 -8 -8 -8 -8 -8 -8 -8 -7 -7 -8 -9 -9 -8 -8 -8 -8 -8 -8 -8 -8 -8 -9 -9 -8 -8 -9 -9 -8 -8 -7 -7 -7 -7 -7 -7 -7
-10 -9 -9 -9 -9 -8 -8 -8 -8 -8 -9 -8 -8 -8 -8 -8 -8 -8 -8 -9 -9 -9 -9 -8 -8 -8 -8 -8 -9 -9 -9 -9 -9 -8 -8 -8 -7 -7 -7 -7 -7 -8 -8
-9 -9 -9 -10 -9 -10 -9 -8 -8 -9 -8 -8 -9 -8 -8 -8 -9 -9 -9 -8 -9 -9 -8 -9 -8 -8 -8 -8 -8 -9 -9 -9 -8 -8 -8 -8 -8 -7 -7 -7 -8 -8 -8
-9 -9 -9 -10 -10 -10 -10 -9 -9 -9 -8 -9 -9 -9 -8 -9 -8 -9 -9 -8 -8 -8 -9 -8 -9 -9 -8 -8 -9 -9 -9 -9 -9 -9 -9 -8 -8 -8 -8 -8 -8 -8 -8
-9 -9 -9 -9 -9 -10 -9 -9 -9 -9 -9 -9 -10 -9 -9 -9 -9 -9 -9 -9 -8 -8 -9 -9 -9 -9 -9 -9 -9 -9 -9 -9 -9 -9 -9 -9 -9 -9 -9 -9 -9 -9 -9
-9 -9 -9 -9 -9 -9 -10 -10 -9 -9 -9 -9 -9 -10 -9 -10 -10 -9 -9 -8 -8 -8 -8 -8 -9 -9 -9 -9 -9 -9 -9 -9 -9 -10 -10 -10 -10 -10 -10 -10 -10 -9 -9
-9 -9 -9 -9 -9 -9 -9 -10 -10 -10 -10 -9 -9 -10 -10 -10 -10 -10 -10 -9 -9 -9 -9 -9 -9 -9 -10 -10 -10 -10 -10 -10 -10 -10 -10 -10 -10 -10 -10 -10 -10 -10 -10
-10 -10 -10 -9 -9 -9 -9 -9 -9 -9 -10 -10 -10 -10 -10 -9 -9 -10 -9 -9 -9 -9 -9 -9 -9 -10 -10 -10 -10 -10 -10 -10 -10 -10 -10 -10 -10 -10 -10 -10 -11 -11 -11
-9 -9 -10 -10 -10 -9 -9 -9 -9 -10 -10 -10 -10 -10 -10 -10 -9 -10 -9 -9 -9 -9 -9 -10 -10 -10 -10 -10 -10 -10 -10 -10 -10 -10 -10 -10 -10 -11 -11 -11 -11 -11 -11
-5 -9 -9 -10 -10 -10 -10 -9 -9 -9 -9 -9 -9 -9 -10 -10 -10 -9 -10 -10 -10 -9 -10 -10 -10 -10 -10 -10 -10 -10 -10 -10 -10 -10 -10 -10 -11 -11 -11 -11 -11 -11 -11
-8 -6 -10 -11 -11 -10 -10 -10 -9 -9 -9 -9 -9 -9 -9 -9 -10 -9 -9 -10 -10 -10 -10 -10 -10 -11 -10 -10 -11 -11 -11 -10 -11 -11 -10 -10 -11 -11 -11 -11 -11 -11 -11
-9 -10 -10 -11 -10 -10 -10 -10 -10 -10 -9 -9 -9 -9 -9 -9 -9 -9 -9 -9 -10 -10 -10 -11 -11 -11 -11 -10 -11 -11 -11 -11 -11 -11 -11 -10 -10 -10 -11 -11 -11 -11 -11
-10 -11 -10 -10 -10 -10 -10 -10 -10 -10 -10 -9 -9 -9 -9 -9 -9 -9 -9 -9 -9 -10 -10 -11 -11 -11 -11 -11 -11 -11 -11 -11 -11 -11 -11 -11 -11 -10 -10 -11 -11 -11 -12
-10 -10 -10 -10 -11 -11 -11 -10 -10 -10 -10 -10 -10 -9 -10 -10 -10 -10 -9 -9 -10 -10 -11 -11 -11 -11 -11 -11 -11 -11 -11 -11 -11 -11 -11 -11 -11 -11 -11 -11 -12 -12 -12
-10 -10 -10 -10 -10 -11 -10 -10 -10 -10 -10 -10 -10 -10 -10 -10 -10 -10 -10 -10 -10 -11 -11 -11 -11 -12 -12 -12 -12 -12 -12 -12 -11 -11 -12 -11 -12 -12 -12 -12 -11 -11 -11
-10 -10 -10 -10 -10 -10 -10 -9 -9 -9 -10 -10 -10 -10 -11 -10 -10 -10 -11 -10 -10 -11 -12 -12 -12 -13 -13 -12 -12 -12 -12 -12 -12 -11 -12 -12 -12 -12 -12 -12 -12 -12 -12
-10 -10 -9 -9 -9 -9 -9 -9 -9 -9 -9 -10 -10 -10 -10 -10 -10 -10 -10 -10 -10 -12 -13 -13 -13 -13 -13 -13 -12 -13 -12 -12 -12 -12 -12 -12 -12 -12 -12 -12 -13 -13 -14
-10 -10 -10 -9 -9 -9 -9 -10 -9 -10 -9 -10 -10 -10 -10 -10 -11 -11 -11 -11 -12 -12 -12 -12 -13 -13 -13 -13 -12 -12 -12 -13 -12 -12 -13 -13 -12 -12 -13 -13 -13 -13 -14
-11 -11 -11 -10 -10 -10 -10 -10 -10 -10 -11 -10 -10 -11 -11 -11 -12 -12 -12 -12 -12 -13 -13 -13 -13 -14 -13 -13 -13 -13 -13 -13 -13 -13 -13 -13 -14 -14 -14 -14 -14 -15 -15
-11 -11 -11 -11 -11 -11 -10 -11 -11 -11 -11 -11 -12 -12 -12 -12 -12 -12 -12 -12 -13 -13 -13 -13 -14 -14 -14 -14 -14 -14 -14 -14 -14 -15 -15 -15 -15 -15 -15 -15 -16 -16 -16
-13 -12 -12 -12 -12 -12 -12 -12 -12 -12 -12 -12 -12 -13 -13 -13 -13 -13 -13 -13 -13 -14 -15 -15 -14 -14 -14 -15 -15 -15 -15 -16 -16 -16 -16 -16 -16 -16 -16 -16 -16 -16 -16
-13 -13 -13 -12 -13 -13 -12 -13 -13 -12 -13 -13 -13 -14 -14 -14 -14 -14 -13 -14 -14 -15 -15 -15 -15 -15 -15 -15 -15 -16 -16 -16 -16 -16 -16 -16 -16 -16 -16 -17 -17 -17 -17
-14 -14 -14 -14 -14 -14 -15 -15 -14 -14 -15 -15 -14 -14 -15 -15 -15 -15 -15 -16 -15 -16 -16 -16 -16 -17 -16 -16 -16 -16 -16 -16 -17 -16 -16 -17 -17 -17 -17 -17 -17 -18 -18
-15 -15 -15 -15 -15 -15 -15 -15 -15 -15 -15 -15 -15 -15 -15 -15 -15 -16 -16 -16 -16 -16 -16 -16 -16 -17 -16 -17 -17 -17 -17 -17 -17 -17 -18 -18 -18 -18 -18 -18 -17 -18 -18
Height
5834 5829 5842 5848 5849 5849 5848 5848 5846 5843 5841 5837 5837 5836 5835 5836 5836 5836 5838 5838 5838 5840 5841 5841 5841 5842 5844 5845 5847 5848 5847 5848 5849 5848 5853 5854 5853 5853 5853 5853 5853 5853 5852
5844 5844 5845 5847 5846 5847 5845 5845 5843 5842 5840 5837 5836 5835 5835 5834 5834 5833 5835 5836 5837 5835 5835 5837 5837 5838 5837 5839 5840 5840 5840 5843 5843 5844 5849 5850 5850 5850 5850 5850 5849 5849 5848
5850 5847 5845 5845 5844 5843 5843 5844 5842 5840 5838 5836 5834 5834 5833 5831 5831 5831 5832 5833 5834 5834 5833 5832 5833 5834 5836 5837 5836 5837 5838 5839 5840 5844 5846 5846 5846 5846 5846 5846 5845 5845 5844
5850 5848 5846 5844 5843 5841 5841 5840 5839 5838 5836 5834 5832 5830 5829 5829 5828 5828 5828 5828 5830 5830 5831 5830 5830 5830 5831 5833 5834 5835 5835 5836 5838 5839 5840 5841 5841 5841 5841 5841 5840 5839 5839
5846 5845 5844 5841 5839 5838 5838 5838 5836 5833 5833 5830 5830 5828 5827 5827 5826 5826 5826 5825 5826 5826 5826 5827 5828 5828 5828 5828 5829 5831 5832 5833 5834 5834 5835 5835 5835 5835 5835 5835 5834 5833 5832
5844 5842 5841 5839 5837 5835 5833 5833 5832 5829 5829 5828 5827 5826 5823 5823 5823 5823 5822 5821 5822 5821 5821 5822 5822 5823 5823 5823 5824 5824 5825 5827 5828 5829 5829 5829 5828 5828 5828 5828 5827 5827 5827
5839 5838 5836 5835 5834 5831 5827 5827 5829 5827 5826 5825 5824 5824 5819 5819 5818 5820 5819 5818 5818 5816 5816 5817 5817 5817 5817 5818 5818 5819 5819 5820 5820 5821 5822 5821 5821 5821 5820 5821 5820 5820 5820
5833 5832 5829 5830 5829 5827 5824 5823 5825 5823 5823 5821 5821 5820 5817 5814 5814 5817 5816 5815 5814 5812 5811 5812 5813 5812 5812 5813 5814 5814 5814 5814 5814 5814 5814 5813 5813 5813 5813 5812 5812 5813 5813
5830 5828 5826 5825 5823 5822 5821 5820 5820 5818 5818 5817 5817 5816 5813 5811 5811 5811 5813 5811 5811 5809 5808 5808 5809 5808 5808 5808 5809 5809 5809 5809 5809 5809 5808 5807 5806 5805 5804 5804 5804 5804 5804
5821 5820 5820 5818 5818 5816 5816 5814 5814 5812 5810 5811 5811 5812 5809 5808 5808 5807 5808 5807 5807 5806 5805 5805 5805 5803 5802 5803 5804 5804 5805 5804 5803 5804 5803 5801 5799 5797 5797 5796 5795 5795 5795
5794 5806 5807 5808 5808 5809 5808 5806 5806 5805 5804 5805 5806 5806 5805 5804 5804 5803 5803 5803 5802 5802 5802 5800 5799 5799 5799 5798 5797 5797 5797 5797 5797 5797 5797 5796 5795 5794 5792 5791 5790 5790 5790
5742 5769 5786 5795 5795 5797 5798 5798 5797 5798 5799 5798 5798 5798 5798 5798 5798 5797 5798 5798 5796 5795 5796 5794 5794 5792 5791 5791 5791 5789 5789 5789 5789 5789 5790 5789 5789 5789 5787 5785 5784 5783 5782
5735 5726 5737 5774 5786 5788 5790 5789 5788 5789 5790 5790 5790 5791 5790 5790 5790 5789 5789 5788 5789 5787 5789 5788 5787 5786 5786 5785 5785 5783 5783 5782 5781 5780 5780 5783 5783 5781 5778 5777 5777 5776 5775
5755 5745 5739 5763 5773 5779 5781 5780 5780 5781 5781 5781 5781 5782 5781 5781 5781 5781 5779 5780 5778 5778 5780 5779 5779 5778 5778 5777 5777 5776 5774 5774 5773 5773 5772 5771 5772 5773 5772 5771 5768 5766 5767
5761 5763 5765 5767 5770 5770 5770 5770 5771 5771 5773 5772 5772 5771 5772 5773 5772 5771 5765 5763 5768 5769 5770 5770 5770 5770 5770 5769 5769 5768 5767 5766 5765 5763 5763 5763 5761 5762 5762 5761 5760 5760 5758
5760 5758 5760 5763 5764 5762 5761 5761 5757 5760 5760 5761 5761 5761 5763 5762 5762 5762 5755 5753 5756 5758 5761 5761 5761 5762 5761 5761 5760 5758 5758 5758 5756 5756 5754 5752 5751 5750 5750 5750 5750 5745 5744
5749 5750 5749 5749 5750 5750 5750 5750 5750 5749 5750 5749 5751 5753 5752 5753 5751 5748 5751 5747 5746 5748 5752 5752 5752 5751 5751 5751 5750 5750 5748 5747 5747 5745 5745 5743 5742 5740 5739 5737 5734 5733 5732
5734 5735 5737 5737 5737 5737 5738 5738 5738 5740 5741 5741 5740 5740 5740 5740 5739 5738 5739 5737 5737 5738 5740 5741 5740 5740 5740 5739 5738 5738 5737 5737 5735 5734 5732 5731 5729 5728 5726 5724 5722 5719 5717
5725 5724 5725 5726 5728 5728 5728 5727 5725 5726 5728 5727 5728 5727 5727 5729 5730 5728 5728 5728 5727 5728 5730 5729 5727 5727 5729 5729 5727 5726 5725 5726 5725 5721 5719 5718 5716 5714 5713 5710 5708 5705 5703
5717 5717 5717 5717 5718 5717 5717 5714 5715 5713 5712 5716 5717 5715 5716 5718 5718 5718 5717 5716 5717 5717 5718 5719 5718 5719 5718 5717 5715 5714 5713 5713 5710 5708 5705 5703 5701 5700 5698 5695 5692 5689 5687
5709 5709 5709 5710 5710 5711 5710 5706 5705 5706 5700 5701 5705 5706 5706 5708 5710 5710 5710 5708 5710 5710 5708 5707 5708 5707 5706 5705 5704 5702 5700 5697 5695 5693 5691 5688 5686 5683 5681 5679 5676 5673 5670
5704 5704 5704 5704 5703 5703 5703 5701 5702 5702 5699 5700 5699 5698 5699 5700 5700 5701 5701 5699 5700 5698 5696 5697 5696 5695 5696 5695 5692 5689 5686 5684 5681 5679 5676 5674 5671 5669 5666 5663 5660 5656 5654
5698 5697 5699 5699 5696 5693 5693 5693 5694 5694 5694 5694 5695 5690 5690 5690 5691 5693 5691 5688 5688 5689 5689 5687 5686 5684 5684 5683 5678 5676 5673 5670 5667 5665 5662 5659 5657 5654 5651 5648 5644 5641 5638
5688 5689 5690 5690 5688 5685 5687 5686 5687 5687 5684 5685 5686 5684 5683 5682 5682 5681 5680 5678 5678 5678 5677 5676 5675 5671 5669 5669 5666 5664 5661 5658 5656 5653 5650 5647 5644 5641 5638 5634 5630 5626 5623
5680 5680 5679 5679 5679 5679 5677 5678 5675 5676 5674 5674 5677 5677 5674 5673 5673 5670 5668 5666 5667 5666 5665 5665 5665 5661 5657 5656 5654 5651 5648 5646 5643 5640 5637 5633 5629 5625 5621 5618 5614 5611 5607
5670 5670 5670 5671 5671 5671 5671 5670 5668 5668 5666 5665 5664 5664 5664 5664 5663 5660 5659 5658 5658 5655 5655 5655 5652 5649 5647 5645 5643 5640 5637 5633 5629 5626 5621 5618 5614 5610 5607 5604 5600 5596 5593
Wind_Speed
14 14 7 7 4 4 6 10 13 13 13 11 12 10 7 11 12 13 14 12 13 16 17 18 18 19 20 21 21 23 28 24 20 21 19 16 14 13 12 13 13 13 12
11 15 8 6 5 7 8 12 13 14 13 13 13 12 11 9 11 13 17 17 16 17 15 16 15 14 17 18 20 22 20 20 19 9 15 15 14 13 13 14 16 15 15
6 16 15 12 8 6 7 10 12 15 15 13 12 14 14 12 11 14 17 14 14 15 16 16 17 16 16 16 19 19 20 19 15 16 16 14 14 15 17 18 18 18 17
17 13 24 15 13 10 6 8 10 15 16 16 15 12 14 14 13 12 14 18 20 19 19 18 19 17 16 16 19 19 20 15 16 20 20 18 18 18 21 22 23 22 20
15 19 23 16 14 11 10 10 9 13 17 16 17 11 11 15 14 15 16 15 16 19 21 20 19 19 21 22 18 18 19 18 23 25 24 23 23 25 26 27 25 24 22
18 18 21 22 16 17 20 15 11 11 13 14 13 14 11 11 13 14 15 16 17 18 18 18 20 21 21 21 22 21 21 22 25 25 26 27 28 28 29 27 26 25 24
21 18 20 19 21 22 18 18 15 11 12 14 13 17 8 10 11 14 14 14 16 16 17 21 22 20 22 23 22 23 23 24 25 26 27 26 26 26 26 26 26 26 25
25 21 21 19 18 18 18 11 15 12 14 14 14 15 11 8 10 14 15 15 15 15 17 19 21 20 20 21 23 23 24 25 26 25 25 26 26 26 27 27 28 29 28
34 29 26 20 19 17 16 12 14 14 16 17 19 15 14 13 11 13 16 16 15 15 16 18 19 18 19 20 20 23 24 24 24 25 24 24 24 24 24 25 26 26 25
42 41 34 27 23 18 19 19 19 17 17 20 22 24 17 16 17 16 17 18 18 17 16 16 18 18 18 18 19 20 22 22 24 24 23 23 23 23 23 21 19 18 21
38 44 42 34 27 22 21 22 22 19 20 22 23 24 23 20 21 21 22 21 21 20 18 19 20 19 17 18 17 17 17 20 21 22 22 22 22 22 21 20 21 22 22
31 46 41 33 26 23 23 24 26 24 22 22 22 22 25 25 24 25 26 24 24 22 20 20 22 23 21 23 22 21 22 22 22 25 26 26 26 26 26 26 25 26 26
17 34 46 24 21 24 26 25 25 27 26 22 23 26 25 27 29 31 31 31 28 27 23 24 24 25 25 25 25 25 25 25 24 22 23 25 26 28 30 31 30 31 31
38 31 22 15 22 27 27 27 27 27 28 26 23 27 26 26 28 29 30 32 32 28 25 27 26 27 28 28 29 30 29 29 29 29 28 29 29 27 27 30 30 29 25
37 32 27 27 29 30 29 27 29 28 30 29 31 31 29 33 31 31 37 38 37 27 26 28 29 31 30 31 30 32 32 32 33 32 31 32 32 32 31 31 30 32 32
40 38 34 31 29 35 35 35 35 30 35 38 35 35 36 35 34 36 37 30 28 27 29 32 32 33 35 36 36 34 35 36 35 34 34 33 33 34 34 34 32 34 36
43 40 38 35 34 34 33 35 38 39 41 41 39 45 45 43 37 40 40 35 34 33 36 36 36 36 35 37 37 38 36 36 36 37 35 35 34 35 35 36 37 37 38
44 43 41 40 38 37 39 40 40 43 45 48 48 48 45 40 40 42 43 48 43 40 38 37 36 37 38 37 37 38 38 40 39 36 36 36 37 38 38 38 39 44 44
34 34 37 38 38 38 38 41 42 42 37 35 39 43 37 33 42 46 45 51 52 40 35 34 38 37 39 40 38 35 37 38 38 36 36 36 38 40 43 44 44 47 45
27 28 27 29 32 34 36 43 47 49 49 41 35 45 50 42 35 41 41 40 36 32 32 34 35 35 37 38 37 35 36 37 37 37 37 38 40 40 43 45 48 48 48
29 28 26 29 30 33 33 37 29 35 36 33 37 28 30 32 29 30 32 31 30 30 34 33 31 32 31 33 33 32 32 34 35 36 37 37 39 41 43 46 47 49 50
29 28 26 28 31 32 33 31 31 31 30 30 27 30 31 28 25 30 39 43 41 36 33 29 27 29 31 32 32 34 35 36 36 38 40 41 43 46 47 47 48 48 49
34 31 27 21 18 25 24 30 31 34 30 29 24 20 27 23 26 31 36 40 39 29 26 28 29 30 32 33 34 36 39 41 42 43 43 41 42 43 44 46 46 46 46
32 32 37 41 45 38 30 32 22 27 28 33 33 36 25 30 33 32 31 31 30 30 29 29 31 34 37 38 39 41 40 39 39 39 39 39 41 43 45 47 48 48 48
27 28 26 24 28 36 29 25 25 26 31 28 28 30 32 30 29 26 26 25 27 30 31 32 33 35 36 35 34 35 36 36 38 41 44 44 45 45 46 47 46 44 44
25 24 23 22 22 22 23 22 24 25 24 27 29 29 32 31 30 28 28 27 31 33 32 32 31 31 31 31 33 36 39 42 43 44 44 44 43 41 40 41 44 46 48
Wind_Direction
351 118 149 224 243 286 322 333 330 336 334 342 334 316 282 256 246 241 248 251 255 263 265 259 254 254 256 254 249 249 247 241 249 229 227 264 267 270 272 277 279 283 289
56 18 349 302 309 316 333 323 327 331 341 346 340 323 303 274 253 252 259 261 260 252 257 252 257 261 257 256 252 249 252 247 250 213 254 262 269 275 278 279 278 279 279
333 355 353 323 311 327 332 317 326 331 336 335 334 325 312 295 277 262 252 254 265 269 263 260 257 255 257 253 245 250 257 253 248 258 257 262 274 287 293 287 280 277 275
4 318 336 331 310 302 299 311 334 332 331 326 319 321 320 302 283 273 259 255 262 272 284 277 264 255 252 253 257 254 251 261 256 256 258 264 273 282 290 293 285 281 280
338 337 339 344 305 286 294 296 316 331 330 324 320 317 332 317 293 281 275 268 266 266 273 280 272 269 264 264 263 256 253 245 251 257 264 270 275 278 285 286 283 280 277
320 329 336 339 343 325 279 281 296 317 323 318 326 320 338 326 319 301 281 275 273 271 274 274 269 267 267 264 260 256 252 254 259 262 265 270 276 279 280 280 277 276 278
305 313 320 324 327 331 314 261 268 300 312 310 318 309 322 324 325 315 309 294 289 287 277 262 262 261 263 262 263 265 266 264 264 267 270 272 273 274 274 276 276 277 278
287 293 296 309 308 319 339 280 269 292 293 300 300 312 312 307 314 305 301 303 304 300 285 276 261 259 263 264 265 264 266 266 265 264 267 270 271 272 274 276 277 277 277
280 279 280 286 294 304 315 306 284 284 282 282 293 290 296 301 297 298 295 299 298 296 301 291 274 265 268 270 274 276 271 273 275 275 273 275 277 277 278 280 281 279 281
270 270 271 275 282 288 292 293 297 301 286 276 273 281 276 285 290 294 295 299 298 300 295 294 288 274 267 270 279 283 285 285 288 288 285 279 278 278 279 281 279 283 280
241 258 261 268 271 278 279 281 288 298 292 294 290 280 282 275 280 283 286 288 291 291 292 286 279 280 278 274 270 272 277 284 288 285 284 285 286 286 285 287 291 294 293
247 231 247 251 259 270 277 273 277 286 293 285 296 291 281 276 276 276 279 280 281 279 280 281 281 277 272 274 277 277 277 275 277 282 285 287 287 287 288 287 286 285 285
258 197 222 222 260 269 276 276 277 283 288 285 282 289 282 280 275 277 268 270 269 275 276 275 272 273 275 279 281 282 283 284 285 284 284 284 291 292 290 285 281 284 287
297 306 322 297 277 273 272 274 274 278 282 282 286 284 281 285 283 273 268 257 260 268 275 267 268 273 276 277 280 283 286 288 291 291 290 290 293 293 290 288 286 285 287
284 286 282 276 272 271 271 273 273 275 282 276 280 280 291 285 277 278 273 254 257 259 269 270 268 270 276 276 275 280 285 287 286 287 287 287 288 290 287 288 290 287 284
276 278 277 274 265 271 271 272 287 275 269 270 271 276 283 284 277 265 265 258 264 266 265 267 271 274 279 279 281 279 282 285 287 288 286 286 286 286 286 282 285 284 283
271 272 273 272 270 270 272 271 272 274 276 282 280 280 284 281 268 283 269 247 258 264 267 271 274 276 280 282 283 281 283 284 285 286 289 288 288 287 285 281 284 283 279
274 274 272 273 274 274 274 272 271 272 275 276 276 276 276 272 272 274 272 273 272 270 270 278 282 284 285 286 287 288 290 289 287 288 288 288 288 287 287 287 284 283 285
273 274 272 270 271 272 272 271 273 274 272 269 271 267 275 271 268 266 280 273 267 263 272 280 282 281 289 291 292 291 291 290 290 289 288 285 285 286 285 284 275 285 282
280 280 275 271 267 270 271 270 273 264 257 263 266 268 267 276 274 265 271 269 264 267 283 287 283 286 286 292 294 294 292 291 289 285 284 285 284 283 283 283 282 282 281
277 282 279 280 277 272 273 251 233 271 283 260 254 266 258 261 269 272 271 256 270 273 287 292 288 288 293 291 289 288 283 284 286 284 283 281 279 279 279 280 281 283 282
275 282 283 280 275 266 259 272 279 276 281 273 280 277 278 277 274 276 277 276 271 278 288 289 287 284 286 285 286 286 286 288 286 285 284 285 285 286 287 289 288 288 287
274 256 248 269 244 239 247 262 270 270 277 278 273 264 301 286 287 285 282 284 290 293 286 286 286 287 289 290 288 286 287 288 289 289 289 290 290 289 288 287 287 287 287
288 277 292 248 271 277 263 269 276 275 267 272 270 276 275 280 296 293 289 285 285 281 278 281 285 285 285 283 283 286 288 288 287 287 288 288 288 288 288 288 288 288 288
288 284 287 288 298 293 290 279 276 274 283 298 292 289 285 284 284 279 281 282 286 287 286 286 288 289 287 288 288 289 291 291 292 293 293 293 291 292 292 292 293 291 291
297 291 284 277 271 269 271 271 277 281 282 280 279 277 278 282 283 286 286 284 285 290 293 293 290 287 288 289 290 292 294 296 296 296 295 295 295 293 292 293 292 292 291